Flag for Germany Weather past 2 weeks in Neuss, North Rhine-Westphalia, Germany

Now
52 °F

Drizzle. Fog.


Feels Like: 47 °F
Forecast: 44 / 54 °F
Wind: 13 mph from Southwest

Location: Duesseldorf

Current Time: Dec 18, 2014 at 11:13:27 AM

Latest Report: Dec 18, 2014 at 10:50 AM


Visibility: 2 mi

Pressure: 29.86 "Hg

Humidity: 100%

Dew point: 52 °F

Location of NeussLocation

Historic Weather in Neuss — Graph

°F

Neuss temperature yesterday

Maximum temperature yesterday: 50 °F (at 7:20 PM)
Minimum temperature yesterday: 36 °F (at 12:50 AM)
Average temperature yesterday: 44 °F

Past Weeks' High & Low Weather Summary

 TemperatureHumidityPressure
High52 °F (Dec 18, 4:20 AM)100% (Dec 8, 5:20 AM)30.36 "Hg (Dec 8, 5:20 AM)
Low30 °F (Dec 3, 9:20 AM)61% (Dec 7, 1:50 PM)29.42 "Hg (Dec 12, 12:50 PM)
Average40 °F86%29.97 "Hg
* Reported Dec 3 9:20 AM — Dec 18 9:50 AM, Neuss, Weather by CustomWeather, © 2014

Note: Actual official high and low records may vary slightly from our data, if they occured in-between our weather recording intervals... More about our weather records

Advertising

Neuss weather history for previous 24 hours

 ConditionsComfort  
Time TempWeatherWind HumidityBarometerVisibility
9:50 AM
Dec 18
52 °FDrizzle. Fog.12 mph94%29.83 "Hg3 mi
9:20 AM52 °FBroken clouds.12 mph94%29.83 "Hg5 mi
8:50 AM52 °FPartly sunny.12 mph100%29.83 "Hg4 mi
8:20 AM52 °FPartly cloudy.10 mph100%29.83 "Hg4 mi
7:50 AM52 °FPartly cloudy.13 mph100%29.80 "Hg4 mi
7:20 AM52 °FPassing clouds.14 mph100%29.83 "Hg4 mi
6:50 AM52 °FDrizzle. Fog.12 mph100%29.80 "Hg2 mi
6:20 AM52 °FDrizzle. Fog.10 mph94%29.80 "Hg3 mi
5:50 AM52 °FDrizzle. Low clouds.9 mph94%29.80 "Hg5 mi
5:20 AM52 °FOvercast.9 mph94%29.80 "HgN/A
4:20 AM52 °FOvercast.9 mph94%29.83 "Hg6 mi
3:50 AM50 °FPassing clouds.10 mph100%29.83 "Hg6 mi
3:20 AM50 °FPassing clouds.10 mph100%29.83 "Hg4 mi
2:50 AM50 °FMostly cloudy.9 mph100%29.83 "Hg4 mi
2:20 AM50 °FFog.10 mph100%29.83 "Hg2 mi
1:50 AM50 °FFog.9 mph100%29.83 "Hg2 mi
1:20 AM50 °FFog.10 mph100%29.83 "Hg3 mi
12:50 AM50 °FFog.8 mph100%29.83 "Hg2 mi
12:20 AM50 °FDrizzle. Fog.8 mph100%29.83 "Hg2 mi
11:20 PM
Dec 17
50 °FFog.9 mph100%29.80 "Hg2 mi
10:50 PM50 °FFog.8 mph100%29.80 "Hg2 mi
10:20 PM50 °FDrizzle. Fog.7 mph100%29.80 "Hg2 mi
9:50 PM50 °FDrizzle. Fog.8 mph100%29.80 "Hg3 mi
9:20 PM50 °FDrizzle. Fog.8 mph100%29.77 "Hg2 mi
8:50 PM50 °FDrizzle. Fog.9 mph100%29.77 "Hg2 mi
8:20 PM50 °FDrizzle. Fog.9 mph100%29.77 "Hg2 mi
7:50 PM50 °FFog.8 mph100%29.74 "Hg3 mi
7:20 PM50 °FFog.9 mph100%29.74 "Hg2 mi
6:50 PM48 °FDrizzle. Fog.10 mph100%29.71 "Hg2 mi
6:20 PM48 °FDrizzle. Fog.9 mph100%29.71 "Hg2 mi
5:50 PM48 °FDrizzle. Fog.10 mph100%29.71 "Hg2 mi
5:20 PM48 °FDrizzle. Mostly cloudy.10 mph100%29.68 "Hg3 mi
4:50 PM48 °FDrizzle. Mostly cloudy.10 mph100%29.68 "Hg3 mi
4:20 PM46 °FDrizzle. Fog.9 mph100%29.65 "Hg2 mi
3:50 PM46 °FDrizzle. Fog.9 mph100%29.65 "Hg2 mi
3:20 PM46 °FDrizzle. Fog.9 mph100%29.65 "Hg2 mi
2:50 PM46 °FDrizzle. Fog.12 mph100%29.62 "Hg2 mi
2:20 PM45 °FDrizzle. Fog.12 mph100%29.62 "Hg2 mi
1:50 PM45 °FBroken clouds.14 mph93%29.59 "Hg4 mi
1:20 PM45 °FDrizzle. Partly sunny.13 mph100%29.62 "Hg4 mi
12:50 PM43 °FDrizzle. Mostly cloudy.8 mph100%29.62 "Hg4 mi
12:20 PM43 °FDrizzle. Partly sunny.10 mph93%29.62 "Hg4 mi
11:50 AM41 °FDrizzle. Fog.14 mph100%29.62 "Hg4 mi
11:20 AM41 °FDrizzle. Fog.16 mph93%29.62 "Hg2 mi
Weather by CustomWeather, © 2014

See weather overviewHow to use our weather pages